This is the latest recevied weather packets stored in our database for station/object KM4NDN. If no packets are shown the sender has not sent any weather packets the latest 10 day(s).
| Time | Temp. | Humidity | Pressure | Rain* | Wind** | Luminosity | Snow |
|---|---|---|---|---|---|---|---|
| 1777664237 | 6.67° C | 85% | 1012.6 hPa | 0 mm | - | 218 W/m² | - |
| 1777663936 | 6.11° C | 85% | 1012.6 hPa | 0 mm | - | 197 W/m² | - |
| 1777663633 | 6.11° C | 86% | 1012.7 hPa | 0 mm | - | 178 W/m² | - |
| 1777663330 | 6.11° C | 87% | 1012.3 hPa | 0 mm | - | 183 W/m² | - |
| 1777663027 | 6.11° C | 88% | 1012.7 hPa | 0 mm | - | 178 W/m² | - |
| 1777662725 | 6.11° C | 89% | 1012.5 hPa | 0 mm | - | 170 W/m² | - |
| 1777662421 | 5.56° C | 87% | 1012.7 hPa | 0 mm | - | 175 W/m² | - |
| 1777662116 | 5.56° C | 88% | 1012.5 hPa | 0 mm | - | 131 W/m² | - |
| 1777661812 | 5.56° C | 88% | 1012.3 hPa | 3.05 mm | - | 141 W/m² | - |
| 1777661508 | 5.56° C | 88% | 1012.4 hPa | 3.05 mm | - | 108 W/m² | - |
| 1777661205 | 6.11° C | 85% | 1012.4 hPa | 0 mm | - | 84 W/m² | - |
| 1777660905 | 6.11° C | 84% | 1012.4 hPa | 0 mm | - | 80 W/m² | - |
| 1777660602 | 6.67° C | 82% | 1012.2 hPa | 0 mm | - | 79 W/m² | - |
| 1777660298 | 7.22° C | 80% | 1012.1 hPa | 0 mm | - | 99 W/m² | - |
| 1777659995 | 7.22° C | 80% | 1012 hPa | 0 mm | - | 244 W/m² | - |
| 1777659691 | 6.67° C | 80% | 1011.9 hPa | 0 mm | - | 285 W/m² | - |
| 1777659389 | 7.22° C | 80% | 1011.9 hPa | 0 mm | - | 245 W/m² | - |
| 1777659086 | 6.67° C | 81% | 1011.8 hPa | 0 mm | - | 232 W/m² | - |
| 1777658784 | 6.67° C | 81% | 1011.6 hPa | 0 mm | - | 265 W/m² | - |
| 1777658480 | 7.22° C | 81% | 1011.5 hPa | 0 mm | - | 368 W/m² | - |
| 1777658177 | 7.22° C | 80% | 1011.7 hPa | 0 mm | - | 322 W/m² | - |
| 1777657873 | 6.67° C | 81% | 1011.7 hPa | 0 mm | - | 344 W/m² | - |
| 1777657570 | 6.67° C | 81% | 1011.8 hPa | 0 mm | - | 428 W/m² | - |
| 1777657268 | 6.67° C | 81% | 1011.9 hPa | 0 mm | - | 339 W/m² | - |
| 1777656965 | 6.11° C | 83% | 1011.5 hPa | 0 mm | - | 320 W/m² | - |
* Rain latest hour (hover to see other rain measurements)
** Current wind speed in m/s (hover to see current wind gust speed)